Regional Weather Roundup
Issued by NWS

Home | Current Version | Previous Version | Graphics & Text | Print | Product List | Glossary On
Versions: 1 2 3 4 5 6 7 8 9 10 11 12 13 14 15 16 17 18 19 20 21 22 23 24 25 26 27 28 29 30 31 32 33 34 35 36 37 38 39 40 41 42 43 44 45 46 47 48 49 50
000
ASUS43 KIND 301459
RWRIN

WEATHER ROUNDUP FOR INDIANA
NATIONAL WEATHER SERVICE INDIANAPOLIS IN
1100 AM EDT SAT MAY 30 2015

NOTE: "FAIR" INDICATES FEW OR NO CLOUDS BELOW 12,000 FEET WITH NO
SIGNIFICANT WEATHER AND/OR OBSTRUCTIONS TO VISIBILITY.

* - STATION DOES NOT REPORT WEATHER SUCH AS PRECIPITATION OR FOG.

+ - STATION NOT QUALITY CONTROLLED BY THE NATIONAL WEATHER SERVICE.
    USE DATA WITH CAUTION...ESPECIALLY DEWPOINT AND RELATIVE
    HUMIDITY OBSERVATIONS.

INZ001>003-010>013-019-020-301600-
NORTHWEST INDIANA

CITY           SKY/WX    TMP DP  RH WIND       PRES   REMARKS
GARY /AIRPORT/ LGT RAIN  70  68  94 CALM      30.00F
RENSSELAER +   CLOUDY    70  68  94 W3        30.01S

$$

LMZ046-743>745-301600-
SOUTHERN LAKE MICHIGAN

STATION/POSITION TIME  TEMP    WIND        PRES    WAVE
                       AIR SEA DIR/SP/G            HT
                 (UTC) (F)     (DEG/KT/KT) (MB)    (FT)
BURNS HARBOR     1400   69     190/  3/  5 1015.9F
MICHIGAN CITY    1400   69     180/  6/  7   N/A
5NW MICH CITY    1400   63 57  220/  4/  6   N/A     0

$$

INZ004-005-014>016-021>024-301600-
NORTH CENTRAL INDIANA

CITY           SKY/WX    TMP DP  RH WIND       PRES   REMARKS
ELKHART        CLOUDY    72  68  88 SW6       30.01F
GOSHEN         CLOUDY    73  66  78 SW8       30.01S
PERU/GRISSOM   PTSUNNY   72  68  86 VRB2      30.00F
SOUTH BEND     CLOUDY    72  66  81 SW5       30.01S

$$

INZ006>009-017-018-025>027-301600-
NORTHEAST INDIANA

CITY           SKY/WX    TMP DP  RH WIND       PRES   REMARKS
ANGOLA *+      PTSUNNY   75  70  83 SW8       30.01F
FORT WAYNE     CLOUDY    78  65  63 W9        30.03S

$$

INZ028-029-035-036-043>045-051>053-301600-
WEST CENTRAL INDIANA

CITY           SKY/WX    TMP DP  RH WIND       PRES   REMARKS
CRAWFORDSVL +  CLOUDY    75  63  66 S9        30.00F
GREENCASTLE +  MOSUNNY   77  64  65 S8        30.02S
LAFAYETTE      LGT RAIN  70  66  87 E3        30.00F
TERRE HAUTE    CLOUDY    76  69  79 S14       30.00S

$$

INZ030>032-037>040-046>048-054>057-064-065-301600-
CENTRAL INDIANA

CITY           SKY/WX    TMP DP  RH WIND       PRES   REMARKS
ANDERSON       PTSUNNY   77  64  65 SW10      30.04F
GREENWOOD *+   MOSUNNY   81  64  57 S12       30.03
INDIANAPOLIS   PTSUNNY   79  66  64 SW13      30.00F
-EAGLE CREEK   MOSUNNY   79  66  64 S8        30.01F
KOKOMO *+      CLOUDY    73  66  78 NW7       30.01F
MT COMFORT *+  MOSUNNY   81  59  47 SW9       30.03F
SHELBYVILLE    PTSUNNY   82  68  62 S15       30.03F

$$

INZ033-034-041-042-049-050-058-059-301600-
EAST CENTRAL INDIANA

CITY           SKY/WX    TMP DP  RH WIND       PRES   REMARKS
MUNCIE         CLOUDY    78  67  68 SW9       30.03F

$$

INZ060-061-067>069-081>083-085>088-301600-
SOUTHWEST INDIANA

CITY           SKY/WX    TMP DP  RH WIND       PRES   REMARKS
EVANSVILLE     MOSUNNY   79  67  66 SW14      30.01F
HUNTINGBURG *+ PTSUNNY   79  66  65 S17       30.03S

$$

INZ062-063-066-070>080-084-089>092-301600-
SOUTH CENTRAL AND SOUTHEAST INDIANA

CITY           SKY/WX    TMP DP  RH WIND       PRES   REMARKS
BLOOMINGTON    MOSUNNY   79  67  66 S14       30.02F
MADISON *+     SUNNY     79  63  57 S14       30.08F
SEYMOUR +      PTSUNNY   82  66  57 SW12G18   30.04F

$$



USA.gov is the U.S. government's official web portal to all federal, state and local government web resources and services.